Wetterdaten: aktuell Samstag, 20.07.2019 09:32
Datum Zeit Temp. I. Temp. 2m Temp. 5cm Temp. -10cm Feuchte I. Feuchte 2m Luftdruck Regen Wind Richtung Richtung Taupunkt Windchill Windben
20.07.2019 09:32 23,4 C 22,8 C 31,2 C 19,6 C 57 % 58 % 1019,4 hPa 0,0 l/m 4,5 km/h (1 Bft) O 90 14,1 C 22,8 C 11,4 km/h (2 Bft)
20.07.2019 09:30 23,4 C 22,7 C 31,5 C 19,5 C 57 % 57 % 1019,4 hPa 0,0 l/m 5,1 km/h (1 Bft) O-SO 112 13,7 C 22,7 C 6,6 km/h (2 Bft)
20.07.2019 09:28 23,4 C 22,6 C 30,8 C 19,5 C 57 % 59 % 1019,4 hPa 0,0 l/m 5,3 km/h (1 Bft) O 90 14,2 C 22,6 C 8,5 km/h (2 Bft)
20.07.2019 09:26 23,4 C 22,3 C 29,7 C 19,5 C 57 % 60 % 1019,4 hPa 0,0 l/m 5,0 km/h (1 Bft) O-SO 112 14,2 C 22,3 C 8,5 km/h (2 Bft)
20.07.2019 09:24 23,4 C 22,0 C 29,0 C 19,5 C 57 % 60 % 1019,4 hPa 0,0 l/m 4,5 km/h (1 Bft) O 90 13,9 C 22,0 C 7,1 km/h (2 Bft)
20.07.2019 09:22 23,4 C 22,0 C 28,6 C 19,5 C 57 % 60 % 1019,4 hPa 0,0 l/m 4,3 km/h (1 Bft) O-NO 67 13,9 C 22,0 C 9,5 km/h (2 Bft)
20.07.2019 09:20 23,4 C 22,0 C 28,5 C 19,5 C 57 % 61 % 1019,4 hPa 0,0 l/m 4,7 km/h (1 Bft) O-NO 67 14,1 C 22,0 C 7,3 km/h (2 Bft)
20.07.2019 09:18 23,4 C 21,7 C 28,6 C 19,5 C 57 % 62 % 1019,4 hPa 0,0 l/m 4,3 km/h (1 Bft) O-NO 67 14,1 C 21,7 C 6,2 km/h (2 Bft)
20.07.2019 09:16 23,4 C 21,7 C 29,3 C 19,5 C 57 % 60 % 1019,4 hPa 0,0 l/m 4,5 km/h (1 Bft) NO 45 13,6 C 21,7 C 6,2 km/h (2 Bft)
20.07.2019 09:14 23,4 C 21,7 C 29,3 C 19,5 C 57 % 60 % 1019,4 hPa 0,0 l/m 4,7 km/h (1 Bft) NO 45 13,6 C 21,7 C 5,0 km/h (1 Bft)
20.07.2019 09:12 23,4 C 21,9 C 29,1 C 19,6 C 57 % 61 % 1019,4 hPa 0,0 l/m 4,8 km/h (1 Bft) NO 45 14,0 C 21,9 C 9,3 km/h (2 Bft)
20.07.2019 09:10 23,4 C 21,8 C 28,9 C 19,5 C 57 % 62 % 1019,4 hPa 0,0 l/m 4,7 km/h (1 Bft) O-NO 67 14,2 C 21,8 C 7,7 km/h (2 Bft)
20.07.2019 09:08 23,4 C 21,8 C 28,8 C 19,5 C 57 % 61 % 1019,4 hPa 0,0 l/m 4,3 km/h (1 Bft) O-NO 67 13,9 C 21,8 C 8,1 km/h (2 Bft)
20.07.2019 09:06 23,4 C 21,6 C 28,8 C 19,5 C 57 % 60 % 1019,4 hPa 0,0 l/m 4,5 km/h (1 Bft) O-NO 67 13,5 C 21,6 C 8,1 km/h (2 Bft)
20.07.2019 09:04 23,4 C 22,2 C 28,4 C 19,5 C 57 % 61 % 1019,4 hPa 0,0 l/m 4,0 km/h (1 Bft) O-SO 112 14,3 C 22,2 C 6,0 km/h (2 Bft)
20.07.2019 09:02 23,4 C 21,7 C 28,1 C 19,5 C 57 % 61 % 1019,4 hPa 0,0 l/m 4,0 km/h (1 Bft) O-NO 67 13,8 C 21,7 C 5,8 km/h (2 Bft)
20.07.2019 09:00 23,2 C 21,5 C 28,0 C 19,5 C 57 % 61 % 1019,4 hPa 0,0 l/m 4,2 km/h (1 Bft) O-NO 67 13,7 C 21,5 C 6,4 km/h (2 Bft)
20.07.2019 08:58 23,4 C 21,6 C 28,0 C 19,5 C 57 % 61 % 1019,4 hPa 0,0 l/m 4,3 km/h (1 Bft) O-NO 67 13,7 C 21,6 C 6,4 km/h (2 Bft)
20.07.2019 08:56 23,2 C 21,7 C 27,5 C 19,5 C 57 % 62 % 1019,4 hPa 0,0 l/m 3,7 km/h (1 Bft) O-SO 112 14,1 C 21,7 C 6,4 km/h (2 Bft)
20.07.2019 08:54 23,2 C 22,0 C 27,0 C 19,5 C 58 % 62 % 1019,6 hPa 0,0 l/m 3,4 km/h (1 Bft) O 90 14,4 C 22,0 C 8,1 km/h (2 Bft)
20.07.2019 08:52 23,2 C 21,9 C 26,9 C 19,4 C 58 % 65 % 1019,6 hPa 0,0 l/m 2,9 km/h (1 Bft) O-SO 112 15,0 C 21,9 C 8,5 km/h (2 Bft)
20.07.2019 08:50 23,3 C 21,3 C 26,3 C 19,4 C 58 % 67 % 1019,6 hPa 0,0 l/m 2,7 km/h (1 Bft) O-NO 67 14,9 C 21,3 C 7,3 km/h (2 Bft)
20.07.2019 08:48 23,2 C 21,0 C 25,8 C 19,4 C 58 % 65 % 1019,6 hPa 0,0 l/m 2,4 km/h (1 Bft) NO 45 14,2 C 21,0 C 5,6 km/h (1 Bft)
20.07.2019 08:46 23,3 C 21,0 C 25,6 C 19,4 C 58 % 68 % 1019,6 hPa 0,0 l/m 2,4 km/h (1 Bft) O-SO 112 14,9 C 21,0 C 3,9 km/h (1 Bft)
20.07.2019 08:44 23,2 C 20,7 C 25,4 C 19,4 C 58 % 67 % 1019,6 hPa 0,0 l/m 2,4 km/h (1 Bft) O-NO 67 14,3 C 20,7 C 5,6 km/h (1 Bft)
20.07.2019 08:42 23,2 C 20,6 C 25,6 C 19,4 C 58 % 64 % 1019,6 hPa 0,0 l/m 2,9 km/h (1 Bft) N-NO 22 13,5 C 20,6 C 6,0 km/h (2 Bft)
20.07.2019 08:40 23,3 C 20,6 C 25,4 C 19,4 C 58 % 67 % 1019,6 hPa 0,0 l/m 2,9 km/h (1 Bft) NO 45 14,3 C 20,6 C 6,0 km/h (2 Bft)
20.07.2019 08:38 23,3 C 20,7 C 25,2 C 19,4 C 58 % 68 % 1019,6 hPa 0,0 l/m 2,9 km/h (1 Bft) NO 45 14,6 C 20,7 C 5,8 km/h (2 Bft)
20.07.2019 08:36 23,3 C 20,6 C 25,2 C 19,4 C 58 % 67 % 1019,6 hPa 0,0 l/m 3,1 km/h (1 Bft) N 360 14,3 C 20,6 C 2,9 km/h (1 Bft)
20.07.2019 08:34 23,2 C 20,2 C 24,9 C 19,4 C 58 % 67 % 1019,4 hPa 0,0 l/m 3,4 km/h (1 Bft) O-NO 67 13,9 C 20,2 C 4,6 km/h (1 Bft)
20.07.2019 08:32 23,2 C 20,1 C 24,7 C 19,4 C 58 % 65 % 1019,4 hPa 0,0 l/m 3,4 km/h (1 Bft) O-NO 67 13,3 C 20,1 C 5,2 km/h (1 Bft)
20.07.2019 08:30 23,2 C 20,3 C 25,1 C 19,4 C 58 % 68 % 1019,4 hPa 0,0 l/m 2,9 km/h (1 Bft) NO 45 14,2 C 20,3 C 5,4 km/h (1 Bft)
20.07.2019 08:28 23,3 C 20,4 C 25,4 C 19,4 C 58 % 68 % 1019,4 hPa 0,0 l/m 2,9 km/h (1 Bft) O-NO 67 14,3 C 20,4 C 5,4 km/h (1 Bft)
20.07.2019 08:26 23,2 C 20,6 C 25,7 C 19,3 C 58 % 70 % 1019,4 hPa 0,0 l/m 2,6 km/h (1 Bft) NO 45 14,9 C 20,6 C 6,6 km/h (2 Bft)
20.07.2019 08:24 23,2 C 20,3 C 25,5 C 19,4 C 58 % 70 % 1019,4 hPa 0,0 l/m 2,1 km/h (1 Bft) NO 45 14,6 C 20,3 C 6,6 km/h (2 Bft)
20.07.2019 08:22 23,2 C 20,3 C 25,3 C 19,4 C 57 % 70 % 1019,4 hPa 0,0 l/m 1,9 km/h (1 Bft) NW 315 14,6 C 20,3 C 2,3 km/h (1 Bft)
20.07.2019 08:20 23,2 C 20,5 C 24,8 C 19,4 C 57 % 72 % 1019,4 hPa 0,0 l/m 2,3 km/h (1 Bft) O-NO 67 15,3 C 20,5 C 5,4 km/h (1 Bft)
20.07.2019 08:18 23,4 C 20,2 C 24,5 C 19,4 C 57 % 71 % 1019,4 hPa 0,0 l/m 2,6 km/h (1 Bft) NO 45 14,8 C 20,2 C 5,4 km/h (1 Bft)
20.07.2019 08:16 23,2 C 20,1 C 24,1 C 19,4 C 57 % 72 % 1019,4 hPa 0,0 l/m 2,3 km/h (1 Bft) O-SO 112 14,9 C 20,1 C 2,7 km/h (1 Bft)
20.07.2019 08:14 23,4 C 19,9 C 23,9 C 19,4 C 57 % 73 % 1019,6 hPa 0,0 l/m 2,4 km/h (1 Bft) NO 45 14,9 C 19,9 C 3,7 km/h (1 Bft)
20.07.2019 08:12 23,4 C 19,9 C 23,2 C 19,4 C 57 % 73 % 1019,6 hPa 0,0 l/m 2,3 km/h (1 Bft) O-SO 112 14,9 C 19,9 C 3,7 km/h (1 Bft)
20.07.2019 08:10 23,4 C 19,7 C 23,1 C 19,4 C 57 % 72 % 1019,6 hPa 0,0 l/m 1,9 km/h (1 Bft) O 90 14,5 C 19,7 C 5,2 km/h (1 Bft)
20.07.2019 08:08 23,4 C 19,5 C 22,8 C 19,4 C 57 % 72 % 1019,6 hPa 0,0 l/m 1,4 km/h (1 Bft) NO 45 14,3 C 19,5 C 5,2 km/h (1 Bft)
20.07.2019 08:06 23,4 C 19,6 C 22,2 C 19,3 C 56 % 73 % 1019,6 hPa 0,0 l/m 0,8 km/h (0 Bft) O 90 14,6 C 19,6 C 3,3 km/h (1 Bft)
20.07.2019 08:04 23,4 C 19,4 C 21,9 C 19,3 C 56 % 73 % 1019,6 hPa 0,0 l/m 0,5 km/h (0 Bft) O-NO 67 14,4 C 19,4 C 3,5 km/h (1 Bft)
20.07.2019 08:02 23,4 C 19,1 C 21,7 C 19,3 C 56 % 74 % 1019,6 hPa 0,0 l/m 0,5 km/h (0 Bft) O-NO 67 14,4 C 19,1 C 3,5 km/h (1 Bft)
20.07.2019 08:00 23,5 C 18,8 C 21,3 C 19,4 C 56 % 73 % 1019,6 hPa 0,0 l/m 0,2 km/h (0 Bft) O-NO 67 13,9 C 18,8 C 1,9 km/h (1 Bft)
20.07.2019 07:58 23,4 C 18,7 C 20,9 C 19,4 C 55 % 72 % 1019,6 hPa 0,0 l/m 0,2 km/h (0 Bft) NO 45 13,5 C 18,7 C 1,9 km/h (1 Bft)
20.07.2019 07:56 23,4 C 18,5 C 20,6 C 19,4 C 55 % 72 % 1019,6 hPa 0,0 l/m 0,3 km/h (0 Bft) O-NO 67 13,4 C 18,5 C 0,0 km/h (0 Bft)
20.07.2019 07:54 23,4 C 18,5 C 20,0 C 19,4 C 55 % 72 % 1019,3 hPa 0,0 l/m 0,6 km/h (0 Bft) O-NO 67 13,4 C 18,5 C 0,0 km/h (0 Bft)
20.07.2019 07:52 23,4 C 18,5 C 19,7 C 19,4 C 55 % 72 % 1019,3 hPa 0,0 l/m 1,1 km/h (1 Bft) O 90 13,4 C 18,5 C 2,5 km/h (1 Bft)
20.07.2019 07:50 23,4 C 18,6 C 19,3 C 19,4 C 55 % 72 % 1019,3 hPa 0,0 l/m 1,3 km/h (1 Bft) O 90 13,4 C 18,6 C 2,5 km/h (1 Bft)
20.07.2019 07:48 23,4 C 18,7 C 19,0 C 19,4 C 55 % 73 % 1019,3 hPa 0,0 l/m 1,4 km/h (1 Bft) O-SO 112 13,8 C 18,7 C 2,9 km/h (1 Bft)
20.07.2019 07:46 23,4 C 18,6 C 19,0 C 19,4 C 55 % 73 % 1019,3 hPa 0,0 l/m 1,8 km/h (1 Bft) O-SO 112 13,7 C 18,6 C 2,9 km/h (1 Bft)
20.07.2019 07:44 23,4 C 18,5 C 19,0 C 19,4 C 55 % 74 % 1019,3 hPa 0,0 l/m 1,6 km/h (1 Bft) O-NO 67 13,8 C 18,5 C 3,5 km/h (1 Bft)
20.07.2019 07:42 23,4 C 18,3 C 18,8 C 19,4 C 55 % 73 % 1019,3 hPa 0,0 l/m 1,3 km/h (1 Bft) O 90 13,4 C 18,3 C 3,5 km/h (1 Bft)
20.07.2019 07:40 23,4 C 18,4 C 18,7 C 19,4 C 55 % 74 % 1019,3 hPa 0,0 l/m 0,8 km/h (0 Bft) O 90 13,7 C 18,4 C 2,3 km/h (1 Bft)
20.07.2019 07:38 23,4 C 18,2 C 18,7 C 19,3 C 55 % 74 % 1019,3 hPa 0,0 l/m 0,8 km/h (0 Bft) O-SO 112 13,5 C 18,2 C 2,5 km/h (1 Bft)
20.07.2019 07:36 23,4 C 18,1 C 18,7 C 19,3 C 55 % 74 % 1019,3 hPa 0,0 l/m 0,5 km/h (0 Bft) O-NO 67 13,4 C 18,1 C 2,5 km/h (1 Bft)
20.07.2019 07:34 23,4 C 18,2 C 18,5 C 19,3 C 55 % 75 % 1019,2 hPa 0,0 l/m 0,2 km/h (0 Bft) O-SO 112 13,7 C 18,2 C 1,9 km/h (1 Bft)
20.07.2019 07:32 23,4 C 18,2 C 18,2 C 19,4 C 55 % 76 % 1019,2 hPa 0,0 l/m 0,2 km/h (0 Bft) O-SO 112 13,9 C 18,2 C 0,0 km/h (0 Bft)
20.07.2019 07:30 23,4 C 18,2 C 18,2 C 19,4 C 55 % 76 % 1019,2 hPa 0,0 l/m 0,2 km/h (0 Bft) O-SO 112 13,9 C 18,2 C 2,3 km/h (1 Bft)
20.07.2019 07:28 23,4 C 18,1 C 18,1 C 19,4 C 55 % 77 % 1019,2 hPa 0,0 l/m 0,2 km/h (0 Bft) O-SO 112 14,0 C 18,1 C 2,3 km/h (1 Bft)
20.07.2019 07:26 23,4 C 18,0 C 18,0 C 19,4 C 55 % 75 % 1019,2 hPa 0,0 l/m 0,0 km/h (0 Bft) O-SO 112 13,5 C 18,0 C 0,0 km/h (0 Bft)
20.07.2019 07:24 23,4 C 18,0 C 18,0 C 19,4 C 55 % 74 % 1019,2 hPa 0,0 l/m 0,0 km/h (0 Bft) O-SO 112 13,3 C 18,0 C 0,0 km/h (0 Bft)
20.07.2019 07:22 23,4 C 17,9 C 18,0 C 19,4 C 55 % 76 % 1019,2 hPa 0,0 l/m 0,0 km/h (0 Bft) O-SO 112 13,6 C 17,9 C 0,0 km/h (0 Bft)
20.07.2019 07:20 23,4 C 17,7 C 18,0 C 19,4 C 55 % 75 % 1019,2 hPa 0,0 l/m 0,0 km/h (0 Bft) O-SO 112 13,2 C 17,7 C 0,0 km/h (0 Bft)
20.07.2019 07:18 23,4 C 17,6 C 18,2 C 19,4 C 55 % 77 % 1019,2 hPa 0,0 l/m 0,0 km/h (0 Bft) O-SO 112 13,5 C 17,6 C 0,0 km/h (0 Bft)
20.07.2019 07:16 23,4 C 17,5 C 18,2 C 19,4 C 55 % 78 % 1019,2 hPa 0,0 l/m 0,0 km/h (0 Bft) O-SO 112 13,6 C 17,5 C 0,0 km/h (0 Bft)
20.07.2019 07:14 23,4 C 17,2 C 18,2 C 19,4 C 55 % 79 % 1019,0 hPa 0,0 l/m 0,0 km/h (0 Bft) O-SO 112 13,5 C 17,2 C 0,0 km/h (0 Bft)
20.07.2019 07:12 23,4 C 17,0 C 18,1 C 19,4 C 55 % 81 % 1019,0 hPa 0,0 l/m 0,0 km/h (0 Bft) O-SO 112 13,7 C 17,0 C 0,0 km/h (0 Bft)
20.07.2019 07:10 23,4 C 16,8 C 18,0 C 19,4 C 55 % 82 % 1019,0 hPa 0,0 l/m 0,0 km/h (0 Bft) O-SO 112 13,7 C 16,8 C 0,0 km/h (0 Bft)
20.07.2019 07:08 23,4 C 16,7 C 17,9 C 19,4 C 55 % 83 % 1019,0 hPa 0,0 l/m 0,0 km/h (0 Bft) O-SO 112 13,8 C 16,7 C 0,0 km/h (0 Bft)
20.07.2019 07:06 23,4 C 16,6 C 17,8 C 19,4 C 55 % 83 % 1019,0 hPa 0,0 l/m 0,0 km/h (0 Bft) O-SO 112 13,7 C 16,6 C 0,0 km/h (0 Bft)
20.07.2019 07:04 23,4 C 16,5 C 17,7 C 19,4 C 55 % 83 % 1019,0 hPa 0,0 l/m 0,0 km/h (0 Bft) O-SO 112 13,6 C 16,5 C 0,0 km/h (0 Bft)
20.07.2019 07:02 23,4 C 16,2 C 17,6 C 19,4 C 55 % 83 % 1019,0 hPa 0,0 l/m 0,0 km/h (0 Bft) O-SO 112 13,3 C 16,2 C 0,0 km/h (0 Bft)
20.07.2019 07:00 23,4 C 16,1 C 17,3 C 19,4 C 55 % 84 % 1019,0 hPa 0,0 l/m 0,0 km/h (0 Bft) SW 225 13,4 C 16,1 C 0,0 km/h (0 Bft)
20.07.2019 06:58 23,4 C 15,8 C 17,1 C 19,4 C 55 % 84 % 1019,0 hPa 0,0 l/m 0,0 km/h (0 Bft) SW 225 13,1 C 15,8 C 0,0 km/h (0 Bft)
20.07.2019 06:56 23,4 C 15,7 C 17,0 C 19,4 C 55 % 84 % 1019,0 hPa 0,0 l/m 0,0 km/h (0 Bft) SW 225 13,0 C 15,7 C 0,0 km/h (0 Bft)
20.07.2019 06:54 23,2 C 15,6 C 16,7 C 19,5 C 55 % 84 % 1019,0 hPa 0,0 l/m 0,0 km/h (0 Bft) SW 225 12,9 C 15,6 C 0,0 km/h (0 Bft)
20.07.2019 06:52 23,4 C 15,5 C 16,6 C 19,5 C 55 % 83 % 1019,0 hPa 0,0 l/m 0,0 km/h (0 Bft) SW 225 12,6 C 15,5 C 0,0 km/h (0 Bft)
20.07.2019 06:50 23,2 C 15,5 C 16,3 C 19,5 C 55 % 83 % 1019,0 hPa 0,0 l/m 0,0 km/h (0 Bft) SW 225 12,6 C 15,5 C 0,0 km/h (0 Bft)
20.07.2019 06:48 23,4 C 15,4 C 16,2 C 19,5 C 55 % 83 % 1019,0 hPa 0,0 l/m 0,0 km/h (0 Bft) SW 225 12,5 C 15,4 C 0,0 km/h (0 Bft)
20.07.2019 06:46 23,4 C 15,4 C 16,1 C 19,5 C 55 % 83 % 1019,0 hPa 0,0 l/m 0,0 km/h (0 Bft) SW 225 12,5 C 15,4 C 0,0 km/h (0 Bft)
20.07.2019 06:44 23,4 C 15,4 C 16,1 C 19,5 C 55 % 83 % 1019,0 hPa 0,0 l/m 0,2 km/h (0 Bft) SW 225 12,5 C 15,4 C 0,0 km/h (0 Bft)
20.07.2019 06:42 23,4 C 15,5 C 16,2 C 19,5 C 55 % 83 % 1019,0 hPa 0,0 l/m 0,3 km/h (0 Bft) SW 225 12,6 C 15,5 C 0,0 km/h (0 Bft)
20.07.2019 06:40 23,4 C 15,4 C 16,2 C 19,5 C 55 % 83 % 1019,0 hPa 0,0 l/m 0,6 km/h (0 Bft) SW 225 12,5 C 15,4 C 0,0 km/h (0 Bft)
20.07.2019 06:38 23,4 C 15,3 C 16,1 C 19,5 C 55 % 83 % 1019,0 hPa 0,0 l/m 1,3 km/h (1 Bft) SW 225 12,4 C 15,3 C 0,0 km/h (0 Bft)
20.07.2019 06:36 23,4 C 15,2 C 15,9 C 19,5 C 55 % 83 % 1019,0 hPa 0,0 l/m 1,6 km/h (1 Bft) SW 225 12,3 C 15,2 C 0,0 km/h (0 Bft)
20.07.2019 06:34 23,4 C 15,3 C 15,9 C 19,5 C 55 % 82 % 1019,1 hPa 0,0 l/m 2,1 km/h (1 Bft) SW 225 12,2 C 15,3 C 2,3 km/h (1 Bft)
20.07.2019 06:32 23,2 C 15,3 C 15,7 C 19,5 C 55 % 82 % 1019,1 hPa 0,0 l/m 2,4 km/h (1 Bft) SW 225 12,2 C 15,3 C 2,9 km/h (1 Bft)
20.07.2019 06:30 23,2 C 15,3 C 15,7 C 19,5 C 55 % 82 % 1019,1 hPa 0,0 l/m 2,6 km/h (1 Bft) SW 225 12,2 C 15,3 C 3,1 km/h (1 Bft)
20.07.2019 06:28 23,4 C 15,2 C 15,6 C 19,5 C 55 % 82 % 1019,1 hPa 0,0 l/m 2,7 km/h (1 Bft) SW 225 12,1 C 15,2 C 3,7 km/h (1 Bft)
20.07.2019 06:26 23,4 C 15,0 C 15,5 C 19,5 C 55 % 83 % 1019,1 hPa 0,0 l/m 2,9 km/h (1 Bft) SW 225 12,1 C 15,0 C 3,7 km/h (1 Bft)
20.07.2019 06:24 23,2 C 14,8 C 15,3 C 19,5 C 55 % 82 % 1019,1 hPa 0,0 l/m 2,9 km/h (1 Bft) SW 225 11,8 C 14,8 C 3,5 km/h (1 Bft)
20.07.2019 06:22 23,4 C 14,6 C 15,2 C 19,5 C 55 % 82 % 1019,1 hPa 0,0 l/m 3,1 km/h (1 Bft) SW 225 11,6 C 14,6 C 3,5 km/h (1 Bft)
20.07.2019 06:20 23,4 C 14,3 C 15,2 C 19,5 C 55 % 82 % 1019,1 hPa 0,0 l/m 3,1 km/h (1 Bft) SW 225 11,3 C 14,3 C 4,2 km/h (1 Bft)
20.07.2019 06:18 23,4 C 14,2 C 15,0 C 19,5 C 55 % 82 % 1019,1 hPa 0,0 l/m 3,1 km/h (1 Bft) SW 225 11,2 C 14,2 C 4,2 km/h (1 Bft)
20.07.2019 06:16 23,4 C 14,1 C 14,9 C 19,5 C 55 % 82 % 1019,1 hPa 0,0 l/m 2,7 km/h (1 Bft) SW 225 11,1 C 14,1 C 3,5 km/h (1 Bft)
20.07.2019 06:14 23,4 C 14,1 C 14,8 C 19,5 C 55 % 82 % 1019,1 hPa 0,0 l/m 2,7 km/h (1 Bft) SW 225 11,1 C 14,1 C 4,1 km/h (1 Bft)
20.07.2019 06:12 23,2 C 14,1 C 14,8 C 19,5 C 55 % 82 % 1019,1 hPa 0,0 l/m 2,3 km/h (1 Bft) W-SW 247 11,1 C 14,1 C 4,1 km/h (1 Bft)
20.07.2019 06:10 23,2 C 14,1 C 14,8 C 19,5 C 55 % 82 % 1019,1 hPa 0,0 l/m 1,9 km/h (1 Bft) W-SW 247 11,1 C 14,1 C 3,9 km/h (1 Bft)
20.07.2019 06:08 23,2 C 13,9 C 14,5 C 19,5 C 55 % 82 % 1019,1 hPa 0,0 l/m 1,3 km/h (1 Bft) W-SW 247 10,9 C 13,9 C 2,9 km/h (1 Bft)
20.07.2019 06:06 23,2 C 13,9 C 14,5 C 19,5 C 55 % 82 % 1019,1 hPa 0,0 l/m 1,3 km/h (1 Bft) W-SW 247 10,9 C 13,9 C 2,9 km/h (1 Bft)
20.07.2019 06:04 23,2 C 13,9 C 14,5 C 19,5 C 55 % 82 % 1019,1 hPa 0,0 l/m 1,3 km/h (1 Bft) W-SW 247 10,9 C 13,9 C 2,9 km/h (1 Bft)
20.07.2019 06:02 23,2 C 13,9 C 14,5 C 19,5 C 55 % 82 % 1019,1 hPa 0,0 l/m 1,3 km/h (1 Bft) W-SW 247 10,9 C 13,9 C 2,9 km/h (1 Bft)
20.07.2019 06:00 23,2 C 13,9 C 14,5 C 19,5 C 55 % 82 % 1019,1 hPa 0,0 l/m 1,3 km/h (1 Bft) W-SW 247 10,9 C 13,9 C 2,9 km/h (1 Bft)
20.07.2019 05:58 23,2 C 13,9 C 14,5 C 19,5 C 55 % 82 % 1019,1 hPa 0,0 l/m 1,0 km/h (0 Bft) W-SW 247 10,9 C 13,9 C 2,7 km/h (1 Bft)
20.07.2019 05:56 23,2 C 13,8 C 14,5 C 19,5 C 55 % 81 % 1019,1 hPa 0,0 l/m 0,6 km/h (0 Bft) W-SW 247 10,6 C 13,8 C 1,9 km/h (1 Bft)
20.07.2019 05:54 23,2 C 13,7 C 14,5 C 19,5 C 55 % 81 % 1019,0 hPa 0,0 l/m 0,6 km/h (0 Bft) W-SW 247 10,5 C 13,7 C 2,1 km/h (1 Bft)
20.07.2019 05:52 23,2 C 13,6 C 14,5 C 19,5 C 55 % 81 % 1019,0 hPa 0,0 l/m 0,6 km/h (0 Bft) W-SW 247 10,4 C 13,6 C 2,5 km/h (1 Bft)
20.07.2019 05:50 23,2 C 13,6 C 14,5 C 19,5 C 55 % 81 % 1019,0 hPa 0,0 l/m 0,2 km/h (0 Bft) W-SW 247 10,4 C 13,6 C 2,5 km/h (1 Bft)
20.07.2019 05:48 23,2 C 13,7 C 14,5 C 19,5 C 55 % 81 % 1019,0 hPa 0,0 l/m 0,0 km/h (0 Bft) W-SW 247 10,5 C 13,7 C 0,0 km/h (0 Bft)
20.07.2019 05:46 23,2 C 13,8 C 14,6 C 19,5 C 55 % 81 % 1019,0 hPa 0,0 l/m 0,0 km/h (0 Bft) W-SW 247 10,6 C 13,8 C 0,0 km/h (0 Bft)
20.07.2019 05:44 23,2 C 13,9 C 14,5 C 19,6 C 55 % 81 % 1019,0 hPa 0,0 l/m 0,0 km/h (0 Bft) W-SW 247 10,7 C 13,9 C 0,0 km/h (0 Bft)
20.07.2019 05:42 23,2 C 13,9 C 14,6 C 19,6 C 55 % 81 % 1019,0 hPa 0,0 l/m 0,2 km/h (0 Bft) W-SW 247 10,7 C 13,9 C 0,0 km/h (0 Bft)
20.07.2019 05:40 23,2 C 14,0 C 14,6 C 19,6 C 55 % 81 % 1019,0 hPa 0,0 l/m 0,2 km/h (0 Bft) W-SW 247 10,8 C 14,0 C 0,0 km/h (0 Bft)
20.07.2019 05:38 23,2 C 14,1 C 14,6 C 19,6 C 55 % 81 % 1019,0 hPa 0,0 l/m 0,2 km/h (0 Bft) W-SW 247 10,9 C 14,1 C 0,0 km/h (0 Bft)
20.07.2019 05:36 23,2 C 14,1 C 14,5 C 19,6 C 55 % 82 % 1019,0 hPa 0,0 l/m 0,2 km/h (0 Bft) W-SW 247 11,1 C 14,1 C 0,0 km/h (0 Bft)
20.07.2019 05:34 23,2 C 14,1 C 14,4 C 19,6 C 55 % 82 % 1018,8 hPa 0,0 l/m 0,2 km/h (0 Bft) W-SW 247 11,1 C 14,1 C 1,9 km/h (1 Bft)
20.07.2019 05:32 23,2 C 14,1 C 14,5 C 19,6 C 55 % 82 % 1018,8 hPa 0,0 l/m 0,2 km/h (0 Bft) W-SW 247 11,1 C 14,1 C 1,9 km/h (1 Bft)
20.07.2019 05:30 23,2 C 14,0 C 14,2 C 19,6 C 55 % 81 % 1018,8 hPa 0,0 l/m 0,3 km/h (0 Bft) W-SW 247 10,8 C 14,0 C 0,0 km/h (0 Bft)
20.07.2019 05:28 23,2 C 13,8 C 14,1 C 19,6 C 55 % 81 % 1018,8 hPa 0,0 l/m 0,6 km/h (0 Bft) W-SW 247 10,6 C 13,8 C 0,0 km/h (0 Bft)
20.07.2019 05:26 23,4 C 13,8 C 13,9 C 19,6 C 55 % 81 % 1018,8 hPa 0,0 l/m 1,0 km/h (0 Bft) W-SW 247 10,6 C 13,8 C 0,0 km/h (0 Bft)
20.07.2019 05:24 23,4 C 13,7 C 13,9 C 19,6 C 55 % 81 % 1018,8 hPa 0,0 l/m 1,4 km/h (1 Bft) W-SW 247 10,5 C 13,7 C 1,9 km/h (1 Bft)
20.07.2019 05:22 23,4 C 13,6 C 14,0 C 19,6 C 55 % 81 % 1018,8 hPa 0,0 l/m 1,9 km/h (1 Bft) W-SW 247 10,4 C 13,6 C 2,1 km/h (1 Bft)
20.07.2019 05:20 23,4 C 13,6 C 14,1 C 19,6 C 55 % 81 % 1018,8 hPa 0,0 l/m 2,1 km/h (1 Bft) W-SW 247 10,4 C 13,6 C 2,3 km/h (1 Bft)
20.07.2019 05:18 23,4 C 13,6 C 14,0 C 19,6 C 55 % 81 % 1018,8 hPa 0,0 l/m 2,1 km/h (1 Bft) W-SW 247 10,4 C 13,6 C 2,9 km/h (1 Bft)
20.07.2019 05:16 23,2 C 13,6 C 14,0 C 19,6 C 55 % 81 % 1018,8 hPa 0,0 l/m 1,8 km/h (1 Bft) W-SW 247 10,4 C 13,6 C 3,3 km/h (1 Bft)
20.07.2019 05:14 23,4 C 13,6 C 14,1 C 19,6 C 55 % 81 % 1018,9 hPa 0,0 l/m 1,3 km/h (1 Bft) W-SW 247 10,4 C 13,6 C 3,3 km/h (1 Bft)
20.07.2019 05:12 23,4 C 13,7 C 14,1 C 19,6 C 55 % 81 % 1018,9 hPa 0,0 l/m 0,8 km/h (0 Bft) W 270 10,5 C 13,7 C 2,9 km/h (1 Bft)
20.07.2019 05:10 23,4 C 13,8 C 14,1 C 19,6 C 55 % 81 % 1018,9 hPa 0,0 l/m 0,5 km/h (0 Bft) W 270 10,6 C 13,8 C 2,9 km/h (1 Bft)
20.07.2019 05:08 23,2 C 13,8 C 14,2 C 19,7 C 55 % 81 % 1018,9 hPa 0,0 l/m 0,2 km/h (0 Bft) W 270 10,6 C 13,8 C 2,3 km/h (1 Bft)
20.07.2019 05:06 23,4 C 13,9 C 14,2 C 19,7 C 55 % 81 % 1018,9 hPa 0,0 l/m 0,0 km/h (0 Bft) W 270 10,7 C 13,9 C 0,0 km/h (0 Bft)
20.07.2019 05:04 23,4 C 13,8 C 14,1 C 19,7 C 55 % 81 % 1018,9 hPa 0,0 l/m 0,0 km/h (0 Bft) W 270 10,6 C 13,8 C 0,0 km/h (0 Bft)
20.07.2019 05:03 23,4 C 13,8 C 14,1 C 19,7 C 55 % 81 % 1018,9 hPa 0,0 l/m 0,0 km/h (0 Bft) W 270 10,6 C 13,8 C 0,0 km/h (0 Bft)
20.07.2019 05:01 23,4 C 13,8 C 14,1 C 19,7 C 55 % 81 % 1018,9 hPa 0,0 l/m 0,0 km/h (0 Bft) W 270 10,6 C 13,8 C 0,0 km/h (0 Bft)
20.07.2019 04:58 23,4 C 13,8 C 14,1 C 19,7 C 55 % 81 % 1018,9 hPa 0,0 l/m 0,0 km/h (0 Bft) W 270 10,6 C 13,8 C 0,0 km/h (0 Bft)
20.07.2019 04:56 23,4 C 13,8 C 14,1 C 19,7 C 55 % 81 % 1018,9 hPa 0,0 l/m 0,0 km/h (0 Bft) W 270 10,6 C 13,8 C 0,0 km/h (0 Bft)
20.07.2019 04:54 23,4 C 13,8 C 14,1 C 19,7 C 55 % 80 % 1018,9 hPa 0,0 l/m 0,0 km/h (0 Bft) W 270 10,4 C 13,8 C 0,0 km/h (0 Bft)
20.07.2019 04:52 23,4 C 13,8 C 14,2 C 19,7 C 55 % 80 % 1018,9 hPa 0,0 l/m 0,0 km/h (0 Bft) W 270 10,4 C 13,8 C 0,0 km/h (0 Bft)
20.07.2019 04:50 23,2 C 13,8 C 14,3 C 19,7 C 55 % 80 % 1018,9 hPa 0,0 l/m 0,0 km/h (0 Bft) W 270 10,4 C 13,8 C 0,0 km/h (0 Bft)
20.07.2019 04:48 23,4 C 13,8 C 14,2 C 19,7 C 55 % 80 % 1018,9 hPa 0,0 l/m 0,0 km/h (0 Bft) W 270 10,4 C 13,8 C 0,0 km/h (0 Bft)
20.07.2019 04:46 23,4 C 13,8 C 14,3 C 19,7 C 55 % 80 % 1018,9 hPa 0,0 l/m 0,0 km/h (0 Bft) W 270 10,4 C 13,8 C 0,0 km/h (0 Bft)
20.07.2019 04:44 23,4 C 13,8 C 14,3 C 19,7 C 56 % 80 % 1018,9 hPa 0,0 l/m 0,0 km/h (0 Bft) W 270 10,4 C 13,8 C 0,0 km/h (0 Bft)
20.07.2019 04:42 23,4 C 13,8 C 14,3 C 19,7 C 56 % 80 % 1018,9 hPa 0,0 l/m 0,0 km/h (0 Bft) W 270 10,4 C 13,8 C 0,0 km/h (0 Bft)
20.07.2019 04:40 23,4 C 13,9 C 14,4 C 19,8 C 55 % 80 % 1018,9 hPa 0,0 l/m 0,0 km/h (0 Bft) W 270 10,5 C 13,9 C 0,0 km/h (0 Bft)
20.07.2019 04:38 23,4 C 14,0 C 14,5 C 19,8 C 56 % 80 % 1018,9 hPa 0,0 l/m 0,0 km/h (0 Bft) W 270 10,6 C 14,0 C 0,0 km/h (0 Bft)
20.07.2019 04:36 23,4 C 14,1 C 14,5 C 19,8 C 56 % 80 % 1018,9 hPa 0,0 l/m 0,3 km/h (0 Bft) W 270 10,7 C 14,1 C 0,0 km/h (0 Bft)
20.07.2019 04:34 23,4 C 14,3 C 14,5 C 19,8 C 55 % 80 % 1018,7 hPa 0,0 l/m 1,0 km/h (0 Bft) W 270 10,9 C 14,3 C 0,0 km/h (0 Bft)
20.07.2019 04:32 23,4 C 14,4 C 14,5 C 19,8 C 55 % 80 % 1018,7 hPa 0,0 l/m 1,8 km/h (1 Bft) W 270 11,0 C 14,4 C 0,0 km/h (0 Bft)
20.07.2019 04:30 23,4 C 14,6 C 14,7 C 19,8 C 55 % 80 % 1018,7 hPa 0,0 l/m 2,1 km/h (1 Bft) W 270 11,2 C 14,6 C 0,0 km/h (0 Bft)
20.07.2019 04:28 23,4 C 14,7 C 14,6 C 19,8 C 55 % 81 % 1018,7 hPa 0,0 l/m 2,7 km/h (1 Bft) W-SW 247 11,5 C 14,7 C 3,3 km/h (1 Bft)
20.07.2019 04:26 23,4 C 14,6 C 14,6 C 19,8 C 56 % 81 % 1018,7 hPa 0,0 l/m 3,2 km/h (1 Bft) W-SW 247 11,4 C 14,6 C 4,4 km/h (1 Bft)
20.07.2019 04:24 23,4 C 14,5 C 14,5 C 19,8 C 56 % 81 % 1018,7 hPa 0,0 l/m 3,1 km/h (1 Bft) W 270 11,3 C 14,5 C 4,4 km/h (1 Bft)
20.07.2019 04:22 23,4 C 14,4 C 14,4 C 19,8 C 56 % 81 % 1018,7 hPa 0,0 l/m 2,7 km/h (1 Bft) W 270 11,2 C 14,4 C 4,2 km/h (1 Bft)
20.07.2019 04:20 23,4 C 14,3 C 14,2 C 19,8 C 56 % 81 % 1018,7 hPa 0,0 l/m 2,6 km/h (1 Bft) W-SW 247 11,1 C 14,3 C 4,6 km/h (1 Bft)
20.07.2019 04:18 23,4 C 14,2 C 14,1 C 19,8 C 56 % 81 % 1018,7 hPa 0,0 l/m 2,1 km/h (1 Bft) W-SW 247 11,0 C 14,2 C 4,6 km/h (1 Bft)
20.07.2019 04:16 23,4 C 14,1 C 14,2 C 19,8 C 56 % 81 % 1018,7 hPa 0,0 l/m 1,9 km/h (1 Bft) W-SW 247 10,9 C 14,1 C 3,3 km/h (1 Bft)
20.07.2019 04:14 23,4 C 14,1 C 14,4 C 19,8 C 56 % 81 % 1018,9 hPa 0,0 l/m 1,9 km/h (1 Bft) W-SW 247 10,9 C 14,1 C 3,3 km/h (1 Bft)
20.07.2019 04:12 23,4 C 14,2 C 14,4 C 19,8 C 56 % 81 % 1018,9 hPa 0,0 l/m 1,8 km/h (1 Bft) W-SW 247 11,0 C 14,2 C 2,5 km/h (1 Bft)
20.07.2019 04:10 23,4 C 14,2 C 14,3 C 19,8 C 56 % 81 % 1018,9 hPa 0,0 l/m 1,9 km/h (1 Bft) W-SW 247 11,0 C 14,2 C 2,5 km/h (1 Bft)
20.07.2019 04:08 23,4 C 14,1 C 14,2 C 19,9 C 56 % 81 % 1018,9 hPa 0,0 l/m 2,1 km/h (1 Bft) W-SW 247 10,9 C 14,1 C 2,5 km/h (1 Bft)
20.07.2019 04:06 23,4 C 14,1 C 14,0 C 19,9 C 56 % 81 % 1018,9 hPa 0,0 l/m 2,3 km/h (1 Bft) W-SW 247 10,9 C 14,1 C 2,5 km/h (1 Bft)
20.07.2019 04:04 23,4 C 14,0 C 14,0 C 19,9 C 56 % 80 % 1018,9 hPa 0,0 l/m 2,4 km/h (1 Bft) W-SW 247 10,6 C 14,0 C 2,5 km/h (1 Bft)
20.07.2019 04:02 23,4 C 13,9 C 14,0 C 19,9 C 56 % 80 % 1018,9 hPa 0,0 l/m 2,3 km/h (1 Bft) W-SW 247 10,5 C 13,9 C 3,5 km/h (1 Bft)
20.07.2019 04:00 23,4 C 13,8 C 14,0 C 19,9 C 56 % 80 % 1018,9 hPa 0,0 l/m 1,9 km/h (1 Bft) W-SW 247 10,4 C 13,8 C 3,5 km/h (1 Bft)
20.07.2019 03:58 23,4 C 13,7 C 13,9 C 19,9 C 56 % 80 % 1018,9 hPa 0,0 l/m 1,6 km/h (1 Bft) W-SW 247 10,3 C 13,7 C 3,9 km/h (1 Bft)
20.07.2019 03:56 23,4 C 13,8 C 14,1 C 19,9 C 56 % 80 % 1018,9 hPa 0,0 l/m 1,0 km/h (0 Bft) W-SW 247 10,4 C 13,8 C 3,9 km/h (1 Bft)
20.07.2019 03:54 23,4 C 13,8 C 14,1 C 19,9 C 56 % 80 % 1018,9 hPa 0,0 l/m 0,5 km/h (0 Bft) W-SW 247 10,4 C 13,8 C 2,9 km/h (1 Bft)
20.07.2019 03:52 23,4 C 13,9 C 14,2 C 19,9 C 56 % 80 % 1018,9 hPa 0,0 l/m 0,2 km/h (0 Bft) W-SW 247 10,5 C 13,9 C 0,0 km/h (0 Bft)
20.07.2019 03:50 23,4 C 13,9 C 14,3 C 19,9 C 56 % 80 % 1018,9 hPa 0,0 l/m 0,0 km/h (0 Bft) W 270 10,5 C 13,9 C 0,0 km/h (0 Bft)
20.07.2019 03:48 23,4 C 13,9 C 14,2 C 19,9 C 56 % 80 % 1018,9 hPa 0,0 l/m 0,2 km/h (0 Bft) W 270 10,5 C 13,9 C 0,0 km/h (0 Bft)
20.07.2019 03:46 23,4 C 14,0 C 14,1 C 19,9 C 56 % 80 % 1018,9 hPa 0,0 l/m 0,2 km/h (0 Bft) W 270 10,6 C 14,0 C 0,0 km/h (0 Bft)
20.07.2019 03:44 23,4 C 14,1 C 14,1 C 20,0 C 56 % 80 % 1018,9 hPa 0,0 l/m 0,8 km/h (0 Bft) W 270 10,7 C 14,1 C 0,0 km/h (0 Bft)
20.07.2019 03:42 23,4 C 14,1 C 14,2 C 20,0 C 56 % 79 % 1018,9 hPa 0,0 l/m 1,3 km/h (1 Bft) W 270 10,5 C 14,1 C 0,0 km/h (0 Bft)
20.07.2019 03:40 23,4 C 14,1 C 14,2 C 20,0 C 56 % 79 % 1018,9 hPa 0,0 l/m 1,6 km/h (1 Bft) W 270 10,5 C 14,1 C 0,0 km/h (0 Bft)
20.07.2019 03:38 23,4 C 14,1 C 14,2 C 20,0 C 56 % 79 % 1018,9 hPa 0,0 l/m 1,9 km/h (1 Bft) W 270 10,5 C 14,1 C 0,0 km/h (0 Bft)
20.07.2019 03:36 23,4 C 14,3 C 14,4 C 20,0 C 56 % 80 % 1018,9 hPa 0,0 l/m 2,1 km/h (1 Bft) W 270 10,9 C 14,3 C 3,7 km/h (1 Bft)
20.07.2019 03:34 23,4 C 14,4 C 14,5 C 20,0 C 56 % 79 % 1018,8 hPa 0,0 l/m 1,9 km/h (1 Bft) W 270 10,8 C 14,4 C 3,7 km/h (1 Bft)
20.07.2019 03:32 23,4 C 14,4 C 14,3 C 20,0 C 56 % 79 % 1018,8 hPa 0,0 l/m 1,4 km/h (1 Bft) W 270 10,8 C 14,4 C 3,7 km/h (1 Bft)
20.07.2019 03:30 23,4 C 14,4 C 14,3 C 20,0 C 56 % 79 % 1018,8 hPa 0,0 l/m 1,4 km/h (1 Bft) W 270 10,8 C 14,4 C 2,7 km/h (1 Bft)
20.07.2019 03:28 23,4 C 14,3 C 14,3 C 20,0 C 56 % 79 % 1018,8 hPa 0,0 l/m 1,0 km/h (0 Bft) W 270 10,7 C 14,3 C 2,9 km/h (1 Bft)
20.07.2019 03:26 23,4 C 14,4 C 14,5 C 20,0 C 56 % 79 % 1018,8 hPa 0,0 l/m 0,6 km/h (0 Bft) W 270 10,8 C 14,4 C 2,9 km/h (1 Bft)
20.07.2019 03:24 23,4 C 14,5 C 14,5 C 20,0 C 56 % 79 % 1018,8 hPa 0,0 l/m 0,3 km/h (0 Bft) W 270 10,9 C 14,5 C 0,0 km/h (0 Bft)
20.07.2019 03:22 23,4 C 14,6 C 14,7 C 20,0 C 56 % 79 % 1018,8 hPa 0,0 l/m 0,3 km/h (0 Bft) W 270 11,0 C 14,6 C 2,5 km/h (1 Bft)
20.07.2019 03:20 23,4 C 14,6 C 14,7 C 20,0 C 56 % 79 % 1018,8 hPa 0,0 l/m 0,2 km/h (0 Bft) W 270 11,0 C 14,6 C 2,5 km/h (1 Bft)
20.07.2019 03:18 23,4 C 14,6 C 14,6 C 20,1 C 56 % 79 % 1018,8 hPa 0,0 l/m 0,0 km/h (0 Bft) W 270 11,0 C 14,6 C 0,0 km/h (0 Bft)
20.07.2019 03:16 23,4 C 14,7 C 14,6 C 20,1 C 56 % 79 % 1018,8 hPa 0,0 l/m 0,0 km/h (0 Bft) W 270 11,1 C 14,7 C 0,0 km/h (0 Bft)
20.07.2019 03:14 23,4 C 14,6 C 14,7 C 20,1 C 56 % 79 % 1018,9 hPa 0,0 l/m 0,3 km/h (0 Bft) W 270 11,0 C 14,6 C 0,0 km/h (0 Bft)
20.07.2019 03:12 23,4 C 14,6 C 14,6 C 20,1 C 56 % 79 % 1018,9 hPa 0,0 l/m 0,6 km/h (0 Bft) W 270 11,0 C 14,6 C 0,0 km/h (0 Bft)
20.07.2019 03:10 23,4 C 14,7 C 14,6 C 20,1 C 56 % 79 % 1018,9 hPa 0,0 l/m 1,0 km/h (0 Bft) W 270 11,1 C 14,7 C 0,0 km/h (0 Bft)
20.07.2019 03:08 23,4 C 14,7 C 14,5 C 20,1 C 56 % 79 % 1018,9 hPa 0,0 l/m 1,3 km/h (1 Bft) W 270 11,1 C 14,7 C 0,0 km/h (0 Bft)
20.07.2019 03:06 23,4 C 14,7 C 14,5 C 20,1 C 56 % 79 % 1018,9 hPa 0,0 l/m 1,3 km/h (1 Bft) W 270 11,1 C 14,7 C 3,1 km/h (1 Bft)
20.07.2019 03:04 23,4 C 14,7 C 14,6 C 20,1 C 56 % 79 % 1018,9 hPa 0,0 l/m 1,1 km/h (1 Bft) W 270 11,1 C 14,7 C 3,1 km/h (1 Bft)
20.07.2019 03:02 23,4 C 14,7 C 14,6 C 20,1 C 56 % 79 % 1018,9 hPa 0,0 l/m 1,0 km/h (0 Bft) W 270 11,1 C 14,7 C 3,7 km/h (1 Bft)
20.07.2019 03:00 23,4 C 14,6 C 14,4 C 20,1 C 56 % 79 % 1018,9 hPa 0,0 l/m 0,8 km/h (0 Bft) W 270 11,0 C 14,6 C 3,7 km/h (1 Bft)
20.07.2019 02:58 23,4 C 14,5 C 14,3 C 20,1 C 56 % 79 % 1018,9 hPa 0,0 l/m 0,6 km/h (0 Bft) W-SW 247 10,9 C 14,5 C 0,0 km/h (0 Bft)
20.07.2019 02:56 23,4 C 14,5 C 14,2 C 20,1 C 56 % 79 % 1018,9 hPa 0,0 l/m 0,8 km/h (0 Bft) W-SW 247 10,9 C 14,5 C 0,0 km/h (0 Bft)
20.07.2019 02:54 23,4 C 14,4 C 14,2 C 20,1 C 56 % 78 % 1019,0 hPa 0,0 l/m 1,3 km/h (1 Bft) W-SW 247 10,6 C 14,4 C 2,3 km/h (1 Bft)
20.07.2019 02:52 23,4 C 14,3 C 14,3 C 20,1 C 56 % 78 % 1019,0 hPa 0,0 l/m 1,6 km/h (1 Bft) W-SW 247 10,5 C 14,3 C 2,3 km/h (1 Bft)
20.07.2019 02:50 23,4 C 14,2 C 14,2 C 20,2 C 56 % 78 % 1019,0 hPa 0,0 l/m 1,1 km/h (1 Bft) W-SW 247 10,4 C 14,2 C 2,3 km/h (1 Bft)
20.07.2019 02:48 23,4 C 14,2 C 14,3 C 20,2 C 56 % 78 % 1019,0 hPa 0,0 l/m 1,4 km/h (1 Bft) W-SW 247 10,4 C 14,2 C 1,9 km/h (1 Bft)
20.07.2019 02:46 23,4 C 14,2 C 14,3 C 20,2 C 56 % 78 % 1019,0 hPa 0,0 l/m 1,8 km/h (1 Bft) W-SW 247 10,4 C 14,2 C 3,7 km/h (1 Bft)
20.07.2019 02:44 23,4 C 14,1 C 14,5 C 20,2 C 56 % 77 % 1019,0 hPa 0,0 l/m 1,8 km/h (1 Bft) W-SW 247 10,1 C 14,1 C 3,7 km/h (1 Bft)
20.07.2019 02:42 23,4 C 14,6 C 14,6 C 20,2 C 56 % 77 % 1019,0 hPa 0,0 l/m 1,1 km/h (1 Bft) NW 315 10,6 C 14,6 C 2,3 km/h (1 Bft)
20.07.2019 02:40 23,4 C 14,7 C 14,6 C 20,2 C 56 % 77 % 1019,0 hPa 0,0 l/m 1,1 km/h (1 Bft) NW 315 10,7 C 14,7 C 2,7 km/h (1 Bft)
20.07.2019 02:38 23,4 C 14,6 C 14,6 C 20,2 C 56 % 77 % 1019,0 hPa 0,0 l/m 1,3 km/h (1 Bft) NW 315 10,6 C 14,6 C 3,1 km/h (1 Bft)
20.07.2019 02:36 23,4 C 14,6 C 14,6 C 20,2 C 56 % 77 % 1019,0 hPa 0,0 l/m 1,4 km/h (1 Bft) NW 315 10,6 C 14,6 C 3,1 km/h (1 Bft)
20.07.2019 02:34 23,4 C 14,7 C 14,6 C 20,2 C 56 % 77 % 1018,9 hPa 0,0 l/m 1,4 km/h (1 Bft) NW 315 10,7 C 14,7 C 2,7 km/h (1 Bft)
20.07.2019 02:32 23,4 C 14,8 C 14,5 C 20,2 C 56 % 77 % 1018,9 hPa 0,0 l/m 1,8 km/h (1 Bft) W-SW 247 10,8 C 14,8 C 0,0 km/h (0 Bft)
20.07.2019 02:30 23,4 C 15,0 C 14,7 C 20,2 C 56 % 77 % 1018,9 hPa 0,0 l/m 1,8 km/h (1 Bft) W-SW 247 11,0 C 15,0 C 2,1 km/h (1 Bft)
20.07.2019 02:28 23,4 C 15,0 C 14,7 C 20,2 C 56 % 77 % 1018,9 hPa 0,0 l/m 1,6 km/h (1 Bft) W-SW 247 11,0 C 15,0 C 3,9 km/h (1 Bft)
20.07.2019 02:26 23,4 C 15,0 C 14,7 C 20,2 C 56 % 77 % 1018,9 hPa 0,0 l/m 1,1 km/h (1 Bft) W-SW 247 11,0 C 15,0 C 3,9 km/h (1 Bft)
20.07.2019 02:24 23,4 C 15,1 C 14,8 C 20,2 C 56 % 77 % 1018,9 hPa 0,0 l/m 0,8 km/h (0 Bft) W-SW 247 11,1 C 15,1 C 3,1 km/h (1 Bft)
20.07.2019 02:22 23,4 C 15,2 C 14,8 C 20,2 C 56 % 77 % 1018,9 hPa 0,0 l/m 0,3 km/h (0 Bft) W-SW 247 11,2 C 15,2 C 2,9 km/h (1 Bft)
20.07.2019 02:20 23,4 C 15,2 C 14,9 C 20,2 C 56 % 77 % 1018,9 hPa 0,0 l/m 0,6 km/h (0 Bft) W-SW 247 11,2 C 15,2 C 0,0 km/h (0 Bft)
20.07.2019 02:18 23,4 C 15,2 C 15,0 C 20,2 C 56 % 77 % 1018,9 hPa 0,0 l/m 1,1 km/h (1 Bft) W-SW 247 11,2 C 15,2 C 0,0 km/h (0 Bft)
20.07.2019 02:16 23,4 C 15,3 C 14,9 C 20,2 C 56 % 76 % 1018,9 hPa 0,0 l/m 1,4 km/h (1 Bft) W-SW 247 11,1 C 15,3 C 0,0 km/h (0 Bft)
20.07.2019 02:14 23,4 C 15,3 C 14,9 C 20,2 C 56 % 76 % 1019,2 hPa 0,0 l/m 1,9 km/h (1 Bft) W-SW 247 11,1 C 15,3 C 0,0 km/h (0 Bft)
20.07.2019 02:12 23,4 C 15,4 C 14,9 C 20,2 C 56 % 75 % 1019,2 hPa 0,0 l/m 2,3 km/h (1 Bft) W-SW 247 11,0 C 15,4 C 4,6 km/h (1 Bft)
20.07.2019 02:10 23,4 C 15,5 C 15,0 C 20,2 C 56 % 75 % 1019,2 hPa 0,0 l/m 2,4 km/h (1 Bft) W 270 11,1 C 15,5 C 4,6 km/h (1 Bft)
20.07.2019 02:08 23,4 C 15,7 C 15,1 C 20,2 C 56 % 75 % 1019,2 hPa 0,0 l/m 2,4 km/h (1 Bft) W 270 11,3 C 15,7 C 3,5 km/h (1 Bft)
20.07.2019 02:06 23,4 C 15,8 C 15,1 C 20,2 C 56 % 75 % 1019,2 hPa 0,0 l/m 2,6 km/h (1 Bft) W 270 11,4 C 15,8 C 2,3 km/h (1 Bft)
20.07.2019 02:04 23,4 C 15,8 C 15,1 C 20,3 C 56 % 75 % 1019,2 hPa 0,0 l/m 2,7 km/h (1 Bft) W 270 11,4 C 15,8 C 2,9 km/h (1 Bft)
20.07.2019 02:02 23,4 C 15,7 C 15,0 C 20,3 C 56 % 75 % 1019,2 hPa 0,0 l/m 3,1 km/h (1 Bft) W 270 11,3 C 15,7 C 3,7 km/h (1 Bft)
20.07.2019 02:00 23,4 C 15,6 C 15,0 C 20,3 C 56 % 75 % 1019,2 hPa 0,0 l/m 3,4 km/h (1 Bft) W-NW 292 11,2 C 15,6 C 3,7 km/h (1 Bft)
20.07.2019 01:58 23,4 C 15,6 C 14,9 C 20,3 C 56 % 75 % 1019,2 hPa 0,0 l/m 3,5 km/h (1 Bft) W-NW 292 11,2 C 15,6 C 4,8 km/h (1 Bft)
20.07.2019 01:56 23,4 C 15,6 C 14,9 C 20,3 C 56 % 75 % 1019,2 hPa 0,0 l/m 3,2 km/h (1 Bft) W 270 11,2 C 15,6 C 4,8 km/h (1 Bft)
20.07.2019 01:54 23,5 C 15,5 C 14,8 C 20,3 C 56 % 75 % 1019,3 hPa 0,0 l/m 2,9 km/h (1 Bft) W 270 11,1 C 15,5 C 4,4 km/h (1 Bft)
20.07.2019 01:52 23,5 C 15,4 C 14,9 C 20,3 C 56 % 75 % 1019,3 hPa 0,0 l/m 3,2 km/h (1 Bft) W-SW 247 11,0 C 15,4 C 5,8 km/h (2 Bft)
20.07.2019 01:50 23,5 C 15,5 C 15,0 C 20,3 C 56 % 74 % 1019,3 hPa 0,0 l/m 3,2 km/h (1 Bft) W-SW 247 10,9 C 15,5 C 5,8 km/h (2 Bft)
20.07.2019 01:48 23,4 C 15,6 C 15,1 C 20,3 C 56 % 74 % 1019,3 hPa 0,0 l/m 2,9 km/h (1 Bft) W-SW 247 11,0 C 15,6 C 3,7 km/h (1 Bft)
20.07.2019 01:46 23,5 C 15,5 C 15,1 C 20,3 C 56 % 74 % 1019,3 hPa 0,0 l/m 2,9 km/h (1 Bft) W 270 10,9 C 15,5 C 3,7 km/h (1 Bft)
20.07.2019 01:44 23,4 C 15,4 C 14,9 C 20,3 C 56 % 74 % 1019,3 hPa 0,0 l/m 3,4 km/h (1 Bft) W 270 10,8 C 15,4 C 5,6 km/h (1 Bft)
20.07.2019 01:42 23,4 C 15,6 C 15,0 C 20,3 C 56 % 74 % 1019,3 hPa 0,0 l/m 3,4 km/h (1 Bft) W 270 11,0 C 15,6 C 5,6 km/h (1 Bft)
20.07.2019 01:40 23,4 C 15,7 C 15,1 C 20,3 C 56 % 74 % 1019,3 hPa 0,0 l/m 3,1 km/h (1 Bft) W 270 11,1 C 15,7 C 4,8 km/h (1 Bft)
20.07.2019 01:38 23,4 C 15,8 C 15,2 C 20,4 C 56 % 74 % 1019,3 hPa 0,0 l/m 2,9 km/h (1 Bft) W-NW 292 11,2 C 15,8 C 3,5 km/h (1 Bft)
20.07.2019 01:36 23,5 C 15,9 C 15,3 C 20,4 C 56 % 74 % 1019,3 hPa 0,0 l/m 2,7 km/h (1 Bft) W 270 11,3 C 15,9 C 4,2 km/h (1 Bft)
20.07.2019 01:34 23,5 C 15,9 C 15,3 C 20,4 C 56 % 74 % 1019,2 hPa 0,0 l/m 2,7 km/h (1 Bft) W 270 11,3 C 15,9 C 4,2 km/h (1 Bft)
20.07.2019 01:32 23,5 C 15,8 C 15,2 C 20,4 C 56 % 74 % 1019,2 hPa 0,0 l/m 2,6 km/h (1 Bft) W 270 11,2 C 15,8 C 4,2 km/h (1 Bft)
20.07.2019 01:30 23,5 C 15,7 C 15,2 C 20,4 C 56 % 74 % 1019,2 hPa 0,0 l/m 2,3 km/h (1 Bft) W-SW 247 11,1 C 15,7 C 3,7 km/h (1 Bft)
20.07.2019 01:28 23,5 C 15,7 C 15,1 C 20,4 C 56 % 74 % 1019,2 hPa 0,0 l/m 1,8 km/h (1 Bft) W-SW 247 11,1 C 15,7 C 3,1 km/h (1 Bft)
20.07.2019 01:26 23,5 C 15,6 C 15,1 C 20,4 C 56 % 74 % 1019,2 hPa 0,0 l/m 1,4 km/h (1 Bft) W-SW 247 11,0 C 15,6 C 2,7 km/h (1 Bft)
20.07.2019 01:24 23,5 C 15,6 C 15,0 C 20,4 C 56 % 73 % 1019,2 hPa 0,0 l/m 1,1 km/h (1 Bft) W-SW 247 10,8 C 15,6 C 3,5 km/h (1 Bft)
20.07.2019 01:22 23,5 C 15,6 C 15,1 C 20,4 C 56 % 73 % 1019,2 hPa 0,0 l/m 1,1 km/h (1 Bft) W-SW 247 10,8 C 15,6 C 3,5 km/h (1 Bft)
20.07.2019 01:20 23,4 C 15,7 C 15,2 C 20,4 C 56 % 73 % 1019,2 hPa 0,0 l/m 1,0 km/h (0 Bft) W 270 10,9 C 15,7 C 2,5 km/h (1 Bft)
20.07.2019 01:18 23,5 C 15,8 C 15,2 C 20,4 C 56 % 73 % 1019,2 hPa 0,0 l/m 1,1 km/h (1 Bft) W 270 11,0 C 15,8 C 0,0 km/h (0 Bft)
20.07.2019 01:16 23,5 C 15,8 C 15,1 C 20,5 C 56 % 73 % 1019,2 hPa 0,0 l/m 1,0 km/h (0 Bft) W 270 11,0 C 15,8 C 2,1 km/h (1 Bft)
20.07.2019 01:14 23,5 C 15,9 C 15,2 C 20,5 C 56 % 73 % 1019,2 hPa 0,0 l/m 1,3 km/h (1 Bft) W 270 11,1 C 15,9 C 3,1 km/h (1 Bft)
20.07.2019 01:12 23,5 C 15,9 C 15,3 C 20,5 C 56 % 73 % 1019,2 hPa 0,0 l/m 1,3 km/h (1 Bft) W 270 11,1 C 15,9 C 3,3 km/h (1 Bft)
20.07.2019 01:10 23,5 C 16,1 C 15,3 C 20,5 C 56 % 73 % 1019,2 hPa 0,0 l/m 1,3 km/h (1 Bft) W-NW 292 11,3 C 16,1 C 3,3 km/h (1 Bft)
20.07.2019 01:08 23,5 C 16,1 C 15,6 C 20,5 C 56 % 72 % 1019,2 hPa 0,0 l/m 1,0 km/h (0 Bft) N-NW 337 11,0 C 16,1 C 0,0 km/h (0 Bft)
20.07.2019 01:06 23,5 C 16,2 C 15,6 C 20,5 C 56 % 72 % 1019,2 hPa 0,0 l/m 1,0 km/h (0 Bft) N-NW 337 11,1 C 16,2 C 0,0 km/h (0 Bft)
20.07.2019 01:04 23,5 C 16,4 C 15,6 C 20,5 C 56 % 72 % 1019,2 hPa 0,0 l/m 1,4 km/h (1 Bft) N-NW 337 11,3 C 16,4 C 3,3 km/h (1 Bft)
20.07.2019 01:02 23,5 C 16,4 C 15,6 C 20,5 C 56 % 72 % 1019,2 hPa 0,0 l/m 1,3 km/h (1 Bft) NW 315 11,3 C 16,4 C 3,3 km/h (1 Bft)
20.07.2019 01:00 23,5 C 16,3 C 15,7 C 20,5 C 56 % 72 % 1019,2 hPa 0,0 l/m 1,1 km/h (1 Bft) NW 315 11,2 C 16,3 C 2,5 km/h (1 Bft)
20.07.2019 00:58 23,5 C 16,3 C 15,8 C 20,5 C 56 % 72 % 1019,2 hPa 0,0 l/m 1,4 km/h (1 Bft) W 270 11,2 C 16,3 C 0,0 km/h (0 Bft)
20.07.2019 00:56 23,5 C 16,4 C 15,7 C 20,5 C 56 % 71 % 1019,2 hPa 0,0 l/m 1,8 km/h (1 Bft) W-SW 247 11,1 C 16,4 C 3,1 km/h (1 Bft)
20.07.2019 00:54 23,5 C 16,6 C 15,8 C 20,6 C 56 % 71 % 1019,2 hPa 0,0 l/m 1,4 km/h (1 Bft) W-SW 247 11,3 C 16,6 C 3,1 km/h (1 Bft)
20.07.2019 00:52 23,5 C 16,6 C 15,9 C 20,6 C 56 % 71 % 1019,2 hPa 0,0 l/m 1,1 km/h (1 Bft) O-SO 112 11,3 C 16,6 C 2,5 km/h (1 Bft)
20.07.2019 00:50 23,5 C 16,7 C 15,9 C 20,6 C 56 % 71 % 1019,2 hPa 0,0 l/m 1,4 km/h (1 Bft) O-SO 112 11,4 C 16,7 C 3,9 km/h (1 Bft)
20.07.2019 00:48 23,5 C 16,8 C 15,9 C 20,6 C 56 % 71 % 1019,2 hPa 0,0 l/m 1,3 km/h (1 Bft) O 90 11,5 C 16,8 C 3,9 km/h (1 Bft)
20.07.2019 00:46 23,5 C 16,9 C 15,9 C 20,6 C 56 % 71 % 1019,2 hPa 0,0 l/m 1,3 km/h (1 Bft) W-SW 247 11,6 C 16,9 C 0,0 km/h (0 Bft)
20.07.2019 00:44 23,5 C 17,0 C 15,9 C 20,6 C 56 % 71 % 1019,2 hPa 0,0 l/m 1,6 km/h (1 Bft) W-SW 247 11,7 C 17,0 C 0,0 km/h (0 Bft)
20.07.2019 00:42 23,5 C 17,1 C 15,9 C 20,6 C 56 % 70 % 1019,2 hPa 0,0 l/m 2,1 km/h (1 Bft) W-SW 247 11,6 C 17,1 C 2,9 km/h (1 Bft)
20.07.2019 00:40 23,5 C 17,2 C 16,0 C 20,6 C 56 % 70 % 1019,2 hPa 0,0 l/m 2,1 km/h (1 Bft) W-SW 247 11,7 C 17,2 C 2,9 km/h (1 Bft)
20.07.2019 00:38 23,5 C 17,4 C 16,2 C 20,6 C 56 % 70 % 1019,2 hPa 0,0 l/m 1,9 km/h (1 Bft) W 270 11,9 C 17,4 C 3,1 km/h (1 Bft)
20.07.2019 00:36 23,5 C 17,4 C 16,2 C 20,6 C 56 % 70 % 1019,2 hPa 0,0 l/m 1,6 km/h (1 Bft) W 270 11,9 C 17,4 C 3,1 km/h (1 Bft)
20.07.2019 00:34 23,5 C 17,4 C 16,2 C 20,6 C 56 % 70 % 1019,2 hPa 0,0 l/m 1,3 km/h (1 Bft) W 270 11,9 C 17,4 C 3,1 km/h (1 Bft)
20.07.2019 00:32 23,5 C 17,3 C 16,2 C 20,6 C 56 % 70 % 1019,2 hPa 0,0 l/m 0,8 km/h (0 Bft) W 270 11,8 C 17,3 C 2,5 km/h (1 Bft)
20.07.2019 00:30 23,6 C 17,2 C 16,2 C 20,6 C 56 % 70 % 1019,2 hPa 0,0 l/m 0,5 km/h (0 Bft) W 270 11,7 C 17,2 C 2,1 km/h (1 Bft)
20.07.2019 00:28 23,5 C 17,2 C 16,2 C 20,7 C 56 % 70 % 1019,2 hPa 0,0 l/m 0,3 km/h (0 Bft) W 270 11,7 C 17,2 C 2,1 km/h (1 Bft)
20.07.2019 00:26 23,6 C 17,2 C 16,2 C 20,7 C 56 % 70 % 1019,2 hPa 0,0 l/m 0,0 km/h (0 Bft) SO 135 11,7 C 17,2 C 0,0 km/h (0 Bft)
20.07.2019 00:24 23,6 C 17,2 C 16,3 C 20,7 C 56 % 70 % 1019,2 hPa 0,0 l/m 0,3 km/h (0 Bft) SO 135 11,7 C 17,2 C 0,0 km/h (0 Bft)
20.07.2019 00:22 23,6 C 17,1 C 16,3 C 20,7 C 56 % 70 % 1019,2 hPa 0,0 l/m 0,5 km/h (0 Bft) SO 135 11,6 C 17,1 C 0,0 km/h (0 Bft)
20.07.2019 00:20 23,6 C 17,2 C 16,4 C 20,7 C 56 % 69 % 1019,2 hPa 0,0 l/m 1,3 km/h (1 Bft) SO 135 11,5 C 17,2 C 0,0 km/h (0 Bft)
20.07.2019 00:18 23,5 C 17,4 C 16,5 C 20,6 C 56 % 69 % 1019,2 hPa 0,0 l/m 1,8 km/h (1 Bft) SO 135 11,7 C 17,4 C 0,0 km/h (0 Bft)
20.07.2019 00:16 23,6 C 17,6 C 16,5 C 20,6 C 56 % 69 % 1019,2 hPa 0,0 l/m 2,3 km/h (1 Bft) SO 135 11,8 C 17,6 C 0,0 km/h (0 Bft)
20.07.2019 00:14 23,6 C 17,7 C 16,5 C 20,6 C 56 % 69 % 1018,9 hPa 0,0 l/m 2,1 km/h (1 Bft) O-SO 112 11,9 C 17,7 C 2,5 km/h (1 Bft)
20.07.2019 00:12 23,6 C 17,7 C 16,7 C 20,6 C 56 % 69 % 1018,9 hPa 0,0 l/m 2,1 km/h (1 Bft) O-NO 67 11,9 C 17,7 C 7,7 km/h (2 Bft)
20.07.2019 00:10 23,6 C 17,7 C 16,7 C 20,6 C 56 % 69 % 1018,9 hPa 0,0 l/m 1,6 km/h (1 Bft) O-NO 67 11,9 C 17,7 C 7,7 km/h (2 Bft)
20.07.2019 00:08 23,6 C 18,0 C 17,3 C 20,7 C 56 % 67 % 1018,9 hPa 0,0 l/m 0,0 km/h (0 Bft) W 270 11,8 C 18,0 C 0,0 km/h (0 Bft)
20.07.2019 00:06 23,6 C 18,0 C 17,3 C 20,7 C 56 % 67 % 1018,9 hPa 0,0 l/m 0,0 km/h (0 Bft) W 270 11,8 C 18,0 C 0,0 km/h (0 Bft)
20.07.2019 00:04 23,6 C 18,0 C 17,3 C 20,7 C 56 % 67 % 1018,9 hPa 0,0 l/m 0,0 km/h (0 Bft) W 270 11,8 C 18,0 C 0,0 km/h (0 Bft)
20.07.2019 00:02 23,6 C 18,0 C 17,3 C 20,7 C 56 % 67 % 1018,9 hPa 0,0 l/m 0,0 km/h (0 Bft) W 270 11,8 C 18,0 C 0,0 km/h (0 Bft)
20.07.2019 00:00 23,6 C 18,0 C 17,3 C 20,7 C 56 % 67 % 1018,9 hPa 0,0 l/m 0,0 km/h (0 Bft) W 270 11,8 C 18,0 C 0,0 km/h (0 Bft)
_ Min-Zeit 04:50 05:14 03:58 07:34 04:28 09:30 04:16 - 00:00 - - 02:44 05:14 00:00
Minimum _ 23,2 C 13,6 C 13,9 C 19,3 C 55 % 57 % 1018,7 hPa - 0,0 km/h (0 Bft) - - 10,1 C 13,6 C 0,0 km/h (0 Bft)
_ Max-Zeit 00:00 09:32 09:30 00:00 08:24 06:54 07:56 00:00 09:28 - - 08:20 09:32 09:32
Maximum _ 23,6 C 22,8 C 31,5 C 20,7 C 58 % 84 % 1019,6 hPa 0,0 l/m 5,3 km/h
O (1 Bft)
- - 15,3 C 22,8 C 11,4 km/h
O (2 Bft)
Durchschnitt _ 23,4 C 16,3 C 17,2 C 19,9 C 56 % 76 % 1019,1 hPa #0,0 l/m 1,5 km/h (1 Bft) W-SW - 11,9 C 16,3 C 2,6 km/h (1 Bft)